Weather reports worldwide

Advertisment
Farnborough, United Kingdom (3768): temperature & dewpoint: 18.01.2020 02:00:00 - 24.01.2020 02:00:00 (GMT)Farnborough, United Kingdom (3768): temperature -100cm: 18.01.2020 02:00:00 - 24.01.2020 02:00:00 (GMT)Farnborough, United Kingdom (3768): wind speed: 18.01.2020 02:00:00 - 24.01.2020 02:00:00 (GMT)Farnborough, United Kingdom (3768): wind direction: 18.01.2020 02:00:00 - 24.01.2020 02:00:00 (GMT)Farnborough, United Kingdom (3768): reduced air pressure: 18.01.2020 02:00:00 - 24.01.2020 02:00:00 (GMT)Farnborough, United Kingdom (3768): visibility: 18.01.2020 02:00:00 - 24.01.2020 02:00:00 (GMT)Farnborough, United Kingdom (3768): precipitation: 18.01.2020 02:00:00 - 24.01.2020 02:00:00 (GMT)
Date & Time tt [°C] td [°C] tt -100cm [°C] ff [km/h] ff [kn] dd ppp [hPa] vv [km] rr [mm]
24.01.2020 02:00:00 5,4 5,1 - 5 3 NNW 1025,3 2,9 0,0
24.01.2020 01:00:00 5,3 4,9 - 4 2 WSW 1025,8 6 0,0
24.01.2020 00:00:00 5,6 4,8 - 0 0 N 1026,5 6 0,0
23.01.2020 23:00:00 5,9 4,6 - 4 2 NNE 1026,9 7 0,0
23.01.2020 22:00:00 6,1 4,7 - 5 3 NE 1027,1 9 0,0
23.01.2020 21:00:00 6,2 4,9 - 9 5 NNE 1027,1 10 0,0
23.01.2020 20:00:00 6,5 4,8 - 9 5 N 1027,4 10 0,0
23.01.2020 19:00:00 6,5 4,8 - 4 2 NE 1027,8 16 0,0
23.01.2020 18:00:00 6,4 4,6 - 4 2 - 1028,1 10 0,0
23.01.2020 17:00:00 6,6 4,6 - 4 2 - 1028,5 10 0,0
23.01.2020 16:00:00 6,7 4,7 - 4 2 ESE 1028,9 10 0,0
23.01.2020 15:00:00 6,8 4,6 - 8 4 ENE 1029,4 10 0,0
23.01.2020 14:00:00 6,7 4,7 - 11 6 ENE 1030,3 10 0,0
23.01.2020 13:00:00 6,9 4,9 - 9 5 E 1031,0 26 0,0
23.01.2020 12:00:00 6,9 4,9 - 13 7 ESE 1031,9 10 0,0
23.01.2020 11:00:00 6,7 4,9 - 9 5 E 1032,8 10 0,0
23.01.2020 10:00:00 6,5 4,9 - 9 5 E 1033,1 10 0,0
23.01.2020 09:00:00 6,4 4,9 7,7 11 6 E 1033,2 10 0,0
23.01.2020 08:00:00 6,4 5,1 - 8 4 ENE 1033,2 10 0,0
23.01.2020 07:00:00 6,2 5,0 - 5 3 E 1033,4 10 0,0
23.01.2020 06:00:00 6,3 5,0 - 2 1 - 1033,4 10 0,0
23.01.2020 05:00:00 6,4 5,2 - 11 6 ENE 1033,7 10 0,0
23.01.2020 04:00:00 6,3 5,1 - 9 5 ENE 1034,2 10 0,0
23.01.2020 03:00:00 6,1 5,1 - 8 4 ENE 1034,8 10 0,0
23.01.2020 02:00:00 6,1 5,2 - 8 4 ENE 1035,2 10 0,0
23.01.2020 01:00:00 6,1 5,2 - 8 4 ENE 1035,8 10 0,0
23.01.2020 00:00:00 6,2 5,2 - 9 5 E 1036,3 10 0,0
22.01.2020 23:00:00 6,4 5,4 - 13 7 E 1036,3 10 0,0
22.01.2020 22:00:00 6,4 6,1 - 9 5 E 1036,5 5 0,0
22.01.2020 21:00:00 6,4 6,2 - 8 4 E 1036,7 5 0,0
22.01.2020 20:00:00 6,4 6,3 - 8 4 ENE 1036,8 4,5 0,0
22.01.2020 19:00:00 6,3 6,2 - 5 3 ESE 1036,7 2,0 0,0
22.01.2020 18:00:00 6,7 6,6 - 8 4 E 1036,7 2,7 0,0
22.01.2020 17:00:00 6,9 6,9 - 8 4 NNE 1036,6 3,9 0,0
22.01.2020 16:00:00 6,6 6,6 - 5 3 N 1036,3 1,8 0,0
22.01.2020 15:00:00 6,3 6,3 - 9 5 NNW 1036,7 1,8 0,2
22.01.2020 14:00:00 5,9 5,9 - 2 1 WSW 1036,9 1,5 0,0
22.01.2020 13:00:00 5,6 5,6 - 2 1 NW 1037,5 1,8 0,0
22.01.2020 12:00:00 5,3 5,3 - 2 1 - 1037,9 2,0 0,0
22.01.2020 11:00:00 4,6 4,6 - 2 1 NW 1038,2 1,5 0,0
22.01.2020 10:00:00 4,0 4,0 - 4 2 N 1037,9 0,4 0,0
22.01.2020 09:00:00 3,3 3,3 7,7 4 2 N 1037,9 0,5 0,0
22.01.2020 08:00:00 2,9 2,9 - 8 4 WSW 1037,9 0,8 0,0
22.01.2020 07:00:00 2,4 2,3 - 4 2 SSW 1038,0 0,7 0,0
22.01.2020 06:00:00 2,1 2,0 - 4 2 - 1037,7 3,5 0,0
22.01.2020 05:00:00 1,4 1,3 - 4 2 SW 1038,0 3,6 0,0
22.01.2020 04:00:00 1,2 1,1 - 4 2 N 1038,4 6 0,0
22.01.2020 03:00:00 0,7 0,6 - 0 0 N 1038,6 6 0,0
22.01.2020 02:00:00 0,0 -0,1 - 2 1 WNW 1039,1 7 0,0
22.01.2020 01:00:00 -0,4 -0,5 - 2 1 SW 1039,6 7 0,0
22.01.2020 00:00:00 -1,7 -1,8 - 2 1 - 1040,3 7 0,0
21.01.2020 23:00:00 -2,2 -2,4 - 2 1 SSW 1040,3 4,4 0,0
21.01.2020 22:00:00 -2,7 -3,0 - 0 0 N 1040,2 5 0,0
21.01.2020 21:00:00 -2,1 -2,4 - 4 2 - 1040,3 9 0,0
21.01.2020 20:00:00 -2,0 -2,5 - 5 3 SW 1040,4 9 0,0
21.01.2020 19:00:00 -0,4 -0,7 - 4 2 - 1040,3 10 0,0
21.01.2020 18:00:00 -0,1 -0,8 - 8 4 SW 1040,5 10 0,0
21.01.2020 17:00:00 1,8 -0,3 - 5 3 SSW 1040,5 10 0,0
21.01.2020 16:00:00 6,0 1,9 - 8 4 NW 1040,5 10 0,0
21.01.2020 15:00:00 6,9 2,4 - 5 3 - 1040,8 10 0,0
21.01.2020 14:00:00 6,9 2,3 - 8 4 NNW 1041,1 24 0,0
21.01.2020 13:00:00 6,0 3,2 - 9 5 NW 1041,8 10 0,0
21.01.2020 12:00:00 4,3 3,7 - 5 3 - 1042,8 10 0,0
21.01.2020 11:00:00 1,0 1,0 - 4 2 - 1043,2 7 0,2
21.01.2020 10:00:00 -0,8 -0,8 - 4 2 - 1043,5 2,2 0,0
21.01.2020 09:00:00 -2,7 -2,8 8,0 0 0 N 1043,3 0,2 0,0
21.01.2020 08:00:00 -2,9 -3,1 - 4 2 - 1043,1 0,3 0,0
21.01.2020 07:00:00 -2,8 -2,9 - 2 1 WNW 1043,2 - 0,0
21.01.2020 06:00:00 -3,6 -3,8 - 0 0 N 1043,2 0,1 0,0
21.01.2020 05:00:00 -3,9 -4,3 - 2 1 WSW 1043,3 10 0,0
21.01.2020 04:00:00 -3,9 -4,2 - 2 1 - 1043,4 6 0,0
21.01.2020 03:00:00 -4,0 -4,4 - 2 1 - 1043,7 7 0,0
21.01.2020 02:00:00 -3,0 -3,3 - 2 1 SSW 1044,4 3,9 0,0
21.01.2020 01:00:00 -2,9 -3,2 - 2 1 SW 1044,6 3,3 0,0
21.01.2020 00:00:00 -2,6 -2,9 - 2 1 - 1045,2 7 0,0
20.01.2020 23:00:00 -2,7 -3,0 - 0 0 N 1045,4 10 0,0
20.01.2020 22:00:00 -3,0 -3,5 - 4 2 WSW 1045,5 13 0,0
20.01.2020 21:00:00 -1,7 -2,1 - 5 3 - 1046,0 10 0,0
20.01.2020 20:00:00 -2,3 -2,9 - 8 4 SSW 1046,0 10 0,0
20.01.2020 19:00:00 -0,3 -0,8 - 2 1 N 1046,3 27 0,0
20.01.2020 18:00:00 0,4 -0,4 - 5 3 S 1046,4 20 0,0
20.01.2020 17:00:00 2,6 0,6 - 5 3 SSW 1046,3 10 0,0
20.01.2020 16:00:00 6,7 0,5 - 5 3 SW 1046,6 10 0,0
20.01.2020 15:00:00 8,0 1,1 - 2 1 - 1047,0 10 0,0
20.01.2020 14:00:00 7,4 1,2 - 4 2 - 1047,5 10 0,0
20.01.2020 13:00:00 5,6 1,1 - 5 3 - 1048,0 10 0,0
20.01.2020 12:00:00 5,4 1,5 - 8 4 WNW 1048,5 24 0,0
20.01.2020 11:00:00 3,8 2,4 - 4 2 WNW 1049,0 25 0,0
20.01.2020 10:00:00 1,6 1,2 - 2 1 NNE 1049,4 19 0,0
20.01.2020 09:00:00 0,2 0,1 8,2 4 2 - 1049,2 10 0,0
20.01.2020 08:00:00 -0,9 -1,1 - 0 0 N 1049,3 10 0,0
20.01.2020 07:00:00 -1,3 -1,5 - 5 3 - 1049,1 10 0,0
20.01.2020 06:00:00 -1,8 -2,1 - 0 0 N 1049,3 9 0,0
20.01.2020 05:00:00 -1,0 -1,3 - 4 2 S 1048,9 10 0,0
20.01.2020 04:00:00 -1,0 -1,3 - 2 1 S 1049,1 13 0,0
20.01.2020 03:00:00 -0,9 -1,2 - 2 1 NNE 1049,2 10 0,0
20.01.2020 02:00:00 -1,4 -1,7 - 4 2 - 1049,5 10 0,0
20.01.2020 01:00:00 -1,7 -1,9 - 5 3 S 1049,4 10 0,0
20.01.2020 00:00:00 -2,0 -2,2 - 2 1 SSW 1049,8 10 0,0
19.01.2020 23:00:00 -2,8 -3,1 - 2 1 - 1050,0 10 0,0
19.01.2020 22:00:00 -2,8 -3,1 - 2 1 WSW 1049,6 10 0,0
19.01.2020 21:00:00 -3,1 -3,5 - 2 1 - 1049,4 10 0,0
19.01.2020 20:00:00 -2,8 -3,3 - 5 3 SW 1049,0 10 0,0
19.01.2020 19:00:00 -1,1 -1,6 - 5 3 WSW 1048,7 10 0,0
19.01.2020 18:00:00 1,2 -0,1 - 4 2 - 1048,1 10 0,0
19.01.2020 17:00:00 3,2 0,3 - 11 6 NNW 1047,4 10 0,0
19.01.2020 16:00:00 5,0 0,7 - 11 6 NNW 1046,9 10 0,0
19.01.2020 15:00:00 6,5 1,5 - 8 4 NNW 1046,4 27 0,0
19.01.2020 14:00:00 6,5 1,6 - 13 7 NNW 1045,9 10 0,0
19.01.2020 13:00:00 6,0 1,9 - 9 5 N 1046,0 10 0,0
19.01.2020 12:00:00 4,4 1,3 - 11 6 NNW 1045,9 10 0,0
19.01.2020 11:00:00 2,4 1,6 - 8 4 WNW 1045,9 10 0,0
19.01.2020 10:00:00 0,1 0,0 - 2 1 WNW 1045,3 5 0,0
19.01.2020 09:00:00 -2,5 -2,6 8,5 2 1 - 1044,6 9 0,0
19.01.2020 08:00:00 -4,2 -4,6 - 2 1 - 1043,5 10 0,0
19.01.2020 07:00:00 -4,1 -4,5 - 9 5 WSW 1042,3 6 0,0
19.01.2020 06:00:00 -3,5 -3,7 - 8 4 WSW 1041,5 6 0,0
19.01.2020 05:00:00 -3,7 -4,0 - 2 1 W 1040,6 6 0,0
19.01.2020 04:00:00 -3,4 -3,7 - 2 1 - 1040,1 6 0,0
19.01.2020 03:00:00 -2,7 -3,1 - 4 2 NW 1039,4 10 0,0
19.01.2020 02:00:00 -2,8 -3,3 - 0 0 N 1038,7 10 0,0
19.01.2020 01:00:00 -2,4 -2,9 - 2 1 WNW 1037,6 10 0,0
19.01.2020 00:00:00 -2,3 -2,8 - 4 2 WNW 1036,8 10 0,0
18.01.2020 23:00:00 -2,0 -2,5 - 0 0 N 1035,8 15 0,0
18.01.2020 22:00:00 -1,0 -1,7 - 5 3 SSW 1035,1 10 0,0
18.01.2020 21:00:00 0,2 -1,0 - 4 2 - 1034,5 10 0,0
18.01.2020 20:00:00 1,4 0,7 - 8 4 W 1033,8 10 0,0
18.01.2020 19:00:00 -0,4 -1,5 - 8 4 WSW 1033,1 10 0,0
18.01.2020 18:00:00 1,1 -0,2 - 5 3 SW 1032,0 10 0,0
18.01.2020 17:00:00 3,4 0,4 - 9 5 NW 1031,2 10 0,0
18.01.2020 16:00:00 5,2 0,7 - 5 3 WNW 1030,4 30 0,0
18.01.2020 15:00:00 6,1 0,7 - 13 7 NW 1029,9 10 0,0
18.01.2020 14:00:00 6,7 1,7 - 15 8 NNW 1029,2 30 0,0
18.01.2020 13:00:00 6,2 1,7 - 9 5 WNW 1028,8 10 0,0
18.01.2020 12:00:00 5,4 2,4 - 9 5 WNW 1028,6 10 0,0
18.01.2020 11:00:00 4,0 2,0 - 8 4 W 1028,3 25 0,2
18.01.2020 10:00:00 1,8 1,3 - 4 2 - 1027,6 10 0,0
18.01.2020 09:00:00 -0,9 -1,2 8,7 4 2 - 1027,1 10 0,0
18.01.2020 08:00:00 -1,5 -2,0 - 4 2 - 1026,7 10 0,0
18.01.2020 07:00:00 0,9 0,2 - 9 5 W 1025,7 22 0,0
18.01.2020 06:00:00 1,0 0,3 - 9 5 W 1024,9 10 0,0
18.01.2020 05:00:00 -0,3 -0,7 - 8 4 WSW 1024,1 10 0,0
18.01.2020 04:00:00 1,1 0,6 - 9 5 WSW 1023,4 10 0,0
18.01.2020 03:00:00 0,2 -0,5 - 9 5 WSW 1023,2 10 0,0
18.01.2020 02:00:00 2,3 1,4 - 11 6 W 1022,5 10 0,0

tt = temperature
td = dewpoint
tt -100cm = temperature -100cm
ff = wind speed
dd = wind direction
ppp = reduced air pressure
vv = visibility
rr = precipitation

Next stations